Find TDRS 1

NORAD ID: 13969 Int'l Des: 1983-026 Owner: GSFC Country: US operational
HEOCIRCULAR

Current View

Loading 3D Globe...

About TDRS 1

Description loading...

Upcoming Passes

Passes for default location (London). Set your location on the main map for personalized predictions.

Altitude History

Loading altitude history...

Two-Line Element Set

1 13969U 83026B 26150.62620030 .00000028 00000-0 00000-0 0 9990
2 13969 8.7024 320.5216 0019084 267.1632 140.6253 0.98741793130192
Epoch: May 30, 2026 • Age: 11 hours

Current Status

Altitude 36179.7 km
Velocity 3.06 km/s
Sub-Earth Point -4.06°S, 108.22°W
Launch Date Apr 4, 1983
Age 43.1 years
Type other

Technical Details

Classification Payload
Mass 2263.00 kg
Dry Mass 1673.00 kg
Total Mass 2263.00 kg
Length 1.30 m
Diameter 2.40 m
Span 17.40 m
Shape Box + Dish + 2 Pan
Manufacturer TRW
Bus Type TDRS
Phase Status In Orbit
Owner/State GSFC/US

Most Searched